RH
29 28 28 28 27 26 26 26 27 28 28 27 26 24 23 22 22 23 23 23 23 24 24 24 26 26 25 23 20 18 18 19 20 22 26 29 30 30 30 31 32 32 33 34 35 36 37 38 38 38 38 38 38 39 39 38 38 38 39 39 39 39 38 37 36 35 34 33 33 33 33 33 34 34 35 36 36 36 37 36 37 37 38 38 39
29 27 27 27 26 25 26 26 26 26 27 27 26 24 23 22 22 22 22 23 23 24 24 25 26 25 24 21 18 17 17 17 18 20 24 28 30 31 31 31 32 32 32 33 34 35 36 37 37 37 37 36 35 36 35 36 37 37 38 38 38 39 39 39 38 38 38 37 35 35 34 33 33 33 33 34 35 35 36 36 36 37 38 38 39
29 27 27 26 25 25 25 25 25 25 25 25 25 24 23 22 22 22 21 22 23 24 25 25 25 24 21 19 16 15 15 16 17 18 22 27 31 31 31 32 32 31 31 32 32 33 34 34 34 35 34 33 33 33 33 34 34 34 35 35 36 37 38 39 39 40 39 38 37 36 35 34 33 33 34 34 35 35 36 36 37 38 38 39 40
30 27 26 26 26 25 25 25 25 25 24 24 24 24 23 23 22 22 22 22 22 22 23 24 23 22 20 17 15 14 14 15 17 19 22 27 29 29 30 31 31 30 29 29 30 31 32 32 31 31 30 30 30 30 30 31 31 31 31 31 32 33 36 37 38 38 37 35 33 33 34 34 34 34 34 35 35 36 37 38 38 39 39 40 40
30 27 26 27 27 26 25 25 25 24 24 23 23 23 23 23 22 21 22 22 21 21 21 22 21 19 18 16 15 14 14 16 19 21 23 26 28 28 28 28 29 28 28 29 29 29 30 29 29 27 27 27 28 28 28 28 28 28 28 29 30 33 35 36 35 34 33 32 31 32 32 33 33 33 32 34 35 36 37 37 38 39 38 38 39
29 27 27 27 27 26 25 24 24 24 23 23 22 22 23 23 21 21 20 20 19 19 19 19 18 17 16 15 14 14 15 17 20 22 23 25 26 26 26 25 25 25 26 27 27 27 27 26 25 24 24 24 25 25 25 25 25 25 27 29 32 34 33 32 31 31 32 33 33 33 33 33 34 33 32 33 36 37 37 37 37 38 37 37 39
29 27 27 27 27 26 25 24 23 23 23 22 22 22 22 22 21 20 20 20 19 18 17 16 15 15 14 14 13 13 15 18 21 22 22 23 24 24 23 23 23 23 24 24 25 25 24 24 22 22 22 22 22 22 23 23 24 26 28 30 31 31 29 29 30 30 32 33 33 33 33 34 34 34 35 37 38 39 39 38 39 40 39 39 41
29 26 26 26 25 24 24 24 23 23 23 22 22 22 22 22 22 21 20 20 19 18 16 15 14 14 14 13 12 13 16 19 21 22 22 22 22 22 21 21 21 22 22 22 23 22 21 21 20 20 20 20 20 21 22 24 25 26 27 28 28 28 28 29 30 32 33 35 35 34 35 37 39 41 42 43 43 44 45 45 44 45 45 46 48
28 26 26 26 25 24 24 24 24 23 23 23 22 22 22 22 22 21 20 19 19 18 16 15 14 14 13 12 12 15 18 20 21 21 21 21 21 21 20 21 21 21 21 21 20 19 17 17 17 17 18 18 19 20 22 24 26 26 27 28 30 31 31 32 35 37 39 41 43 45 47 48 48 48 49 51 51 51 52 53 52 51 53 55 56
28 26 25 25 25 24 24 24 24 24 24 23 23 23 22 22 22 21 20 19 19 18 17 16 14 13 12 12 13 16 19 20 20 20 21 21 21 20 19 19 19 19 18 17 17 16 15 16 16 17 17 19 20 22 24 26 28 29 30 32 34 35 36 38 40 42 45 48 52 56 57 57 56 55 55 56 56 56 56 57 56 56 57 57 57
29 27 26 25 25 26 25 25 25 24 24 23 23 23 23 22 22 21 20 20 20 19 17 16 14 13 13 13 15 18 19 20 20 20 21 21 21 20 19 18 17 16 15 15 15 15 15 17 17 19 20 21 23 25 27 28 30 31 32 34 37 40 42 45 47 49 51 53 56 59 60 60 60 59 58 58 58 58 59 58 58 58 58 58 57
29 28 28 27 26 26 27 27 26 25 24 23 23 23 23 23 22 21 20 20 20 20 19 18 15 14 15 16 18 20 20 19 19 20 21 21 21 20 19 18 16 15 14 14 15 16 18 19 20 22 23 25 27 28 29 31 32 34 36 38 42 45 47 49 52 53 54 54 56 59 61 61 61 60 58 58 59 60 61 61 60 59 58 57 55
30 31 31 29 27 27 27 28 28 26 25 23 23 23 22 22 21 21 20 20 21 21 21 20 18 17 18 19 21 22 21 20 19 20 20 21 21 21 20 18 16 15 15 16 17 19 21 22 23 25 27 28 29 30 32 35 37 39 41 44 46 47 48 50 52 53 54 54 54 56 58 58 58 59 59 60 61 63 63 61 59 57 55 52 50
33 34 34 31 29 28 28 29 28 28 26 24 23 22 21 20 20 20 20 20 21 21 22 21 21 20 22 22 23 24 23 22 21 21 21 21 21 21 20 18 17 16 17 18 20 22 24 25 26 28 29 30 30 32 35 40 42 43 44 45 46 46 47 50 52 53 53 53 53 54 57 57 57 59 61 62 61 61 59 55 54 53 50 48 46
34 34 35 33 30 28 28 29 29 28 27 25 22 20 20 19 20 20 20 20 21 21 21 22 23 24 25 25 26 26 25 24 24 24 23 22 22 22 21 20 18 18 19 21 23 25 26 28 29 29 30 30 32 35 39 43 45 45 46 47 47 47 48 50 52 53 53 53 54 56 57 58 58 61 62 61 57 55 54 52 51 50 49 47 44
35 35 35 34 30 28 27 28 28 27 26 24 21 19 19 19 19 19 20 20 21 21 21 22 24 27 28 29 29 28 26 26 26 26 26 25 25 24 23 21 19 20 22 24 26 28 29 30 30 30 31 32 35 38 42 45 46 47 48 49 48 48 51 54 55 54 54 55 57 58 58 59 61 62 61 58 54 54 54 51 49 50 51 49 44
34 33 34 34 31 28 27 26 26 25 24 22 19 18 18 18 18 19 20 20 21 21 21 23 26 29 30 31 32 30 28 27 27 27 28 28 28 28 25 22 21 22 24 27 29 30 31 31 31 31 34 36 38 42 46 47 48 49 51 52 51 50 54 58 57 54 54 56 58 60 60 61 63 62 58 56 54 55 53 49 47 51 51 47 41
32 32 33 33 32 30 28 27 26 25 24 22 21 19 19 19 18 19 19 20 21 21 22 25 29 31 32 33 33 32 31 30 28 28 30 31 31 31 28 26 25 25 27 29 30 31 31 31 32 35 37 40 42 46 48 49 50 52 54 54 53 53 57 60 58 56 57 59 60 61 61 62 62 60 56 53 51 52 51 46 44 45 44 40 38
31 31 32 33 33 33 32 30 28 26 26 25 25 24 24 23 23 23 23 23 23 24 25 28 31 33 34 35 35 34 34 34 31 31 32 33 34 33 33 32 30 29 30 32 32 32 33 33 35 38 41 44 47 49 51 51 52 54 55 55 55 54 56 58 58 58 60 61 61 61 61 61 62 58 51 46 44 44 44 42 41 41 39 38 37
30 30 31 33 34 34 34 33 32 30 29 29 28 29 29 29 30 30 31 31 32 32 33 34 35 36 36 37 37 37 37 37 35 34 34 35 35 36 37 37 35 33 33 34 34 35 36 37 39 41 44 47 49 52 53 53 54 55 55 55 55 54 55 56 57 58 59 60 61 60 60 61 61 54 45 40 40 40 39 39 39 39 38 36 36
29 29 30 31 32 33 34 34 34 34 34 34 34 35 36 38 39 40 40 41 42 42 43 43 42 41 40 39 38 38 38 37 36 35 35 36 37 39 40 40 38 37 36 36 36 37 39 41 42 44 46 48 50 52 53 53 54 54 53 54 55 56 56 57 58 58 59 61 61 60 60 61 57 48 39 36 36 35 33 33 33 33 34 34 34
30 29 29 29 30 31 32 33 33 34 35 37 39 41 43 45 46 46 46 46 46 47 48 48 47 46 45 43 40 38 36 36 35 35 35 36 38 40 41 41 41 41 39 38 38 39 40 42 44 45 47 49 50 51 51 51 51 51 52 53 55 57 58 58 59 60 60 60 58 58 60 58 49 39 32 29 28 28 28 27 27 29 30 30 30
31 30 29 29 29 29 29 30 31 33 35 39 43 45 46 46 46 45 45 45 45 45 45 45 46 46 45 44 44 42 40 39 38 38 38 39 40 42 42 42 42 42 41 39 39 40 41 43 44 46 48 49 50 50 50 50 49 49 52 55 57 58 59 59 59 59 58 57 57 58 58 51 39 31 27 26 26 27 26 25 26 26 26 25 25
35 35 34 33 32 31 31 31 33 35 37 40 43 45 45 45 45 45 43 43 43 43 43 44 45 45 45 46 47 47 48 47 46 46 46 45 45 45 44 44 43 42 40 40 41 42 44 45 46 47 48 49 50 50 49 49 49 51 54 56 57 57 58 59 59 58 57 58 58 56 50 39 30 27 27 26 26 26 26 26 26 25 24 23 23
41 40 39 39 38 38 37 37 38 39 40 41 43 45 46 47 48 48 47 46 45 45 45 46 46 47 47 48 49 51 52 54 56 57 57 55 53 50 49 47 45 43 42 43 44 46 47 48 49 50 50 50 50 49 49 50 52 54 55 56 57 58 58 58 57 57 57 56 51 45 37 31 28 27 27 27 27 26 26 26 25 24 24 23 23
45 44 43 43 43 43 43 42 42 43 44 45 47 48 48 49 50 50 50 50 50 50 50 50 50 51 50 50 51 52 53 56 59 61 61 61 59 56 53 50 48 47 47 47 48 49 49 50 51 51 51 51 51 52 53 54 55 56 56 57 59 60 60 59 58 55 51 45 39 34 30 27 27 27 27 27 26 26 26 26 25 24 24 23 22
48 47 45 44 44 45 44 44 44 45 46 47 48 48 49 49 50 50 50 50 51 52 53 52 53 53 52 51 52 52 53 55 58 59 59 59 59 58 56 52 50 50 51 51 51 51 52 53 54 54 55 56 56 57 58 58 58 57 58 59 61 61 61 58 53 46 39 35 32 30 27 26 27 27 27 26 26 26 27 26 25 24 24 23 22
51 48 45 45 44 44 44 45 45 46 45 45 46 46 47 48 48 48 48 49 50 51 51 52 52 53 53 53 53 52 52 53 55 57 57 57 58 57 55 53 53 54 55 55 56 57 57 58 59 60 60 60 60 59 58 58 59 60 62 63 62 58 53 48 41 36 33 31 29 27 26 27 27 27 26 26 27 28 27 26 25 24 24 23 22
56 51 47 45 43 43 44 45 45 45 44 43 44 44 45 45 46 47 47 47 47 49 49 48 49 51 52 53 53 53 53 53 55 56 57 58 59 58 58 57 58 58 59 59 60 60 61 61 60 60 60 60 59 59 60 62 65 66 65 60 53 48 42 38 33 31 29 27 26 26 27 27 27 26 27 27 28 28 27 26 26 25 24 23 22
59 54 50 46 43 43 44 44 44 44 43 41 41 42 43 43 44 45 45 45 45 47 47 47 47 47 48 50 51 53 55 55 56 57 58 59 60 60 61 61 62 62 62 62 63 62 62 61 61 60 61 61 62 64 68 70 69 63 55 48 43 39 35 31 29 28 27 26 27 28 27 27 27 27 28 29 29 29 28 27 26 25 24 24 24
57 53 50 48 45 45 44 43 44 44 44 42 42 41 42 42 42 42 42 43 44 45 45 45 46 46 47 47 48 50 52 54 56 57 57 58 58 59 60 60 61 62 62 62 62 61 61 61 62 62 62 62 63 64 63 60 55 50 45 41 37 33 29 27 27 27 27 28 28 28 27 28 28 29 30 29 29 29 28 27 27 26 25 25 26
52 49 48 47 46 44 43 42 42 43 44 45 44 42 42 42 42 42 42 42 43 44 44 45 46 47 48 49 48 48 49 50 52 54 54 55 55 55 56 57 57 58 59 61 64 65 64 65 67 68 67 64 61 57 51 48 46 45 41 36 31 28 27 27 28 28 29 29 29 28 29 29 30 30 30 30 29 29 29 28 28 27 26 26 27
49 46 46 46 45 44 42 42 42 43 44 45 46 45 44 42 42 42 43 43 44 45 45 46 47 47 48 49 49 49 48 48 49 50 51 54 57 56 56 57 56 57 61 67 70 70 68 66 65 64 61 57 53 49 47 45 43 40 35 30 28 28 29 29 29 30 30 30 29 29 30 31 32 31 30 30 29 29 29 29 28 27 27 27 28
53 51 49 46 44 44 44 43 43 42 43 46 47 47 46 44 44 44 44 44 46 47 48 49 49 48 49 48 46 46 46 47 48 47 49 57 65 66 64 63 61 61 64 66 67 67 65 61 58 55 50 46 45 44 42 40 36 32 30 29 29 30 31 31 32 32 31 30 30 31 32 33 32 31 30 30 31 30 30 30 29 29 29 30 30
55 52 49 45 43 42 42 43 44 43 44 46 48 50 51 51 50 49 47 46 47 48 49 50 50 49 49 46 45 46 49 48 46 44 47 54 61 63 64 66 68 70 71 69 66 64 61 58 56 53 48 44 41 38 35 32 31 30 30 31 32 32 33 33 32 32 31 31 32 33 34 33 32 31 31 31 31 31 31 31 30 30 31 32 32
52 48 44 43 42 41 41 42 42 43 44 45 47 50 52 52 51 50 49 48 47 48 49 50 49 48 48 45 43 44 46 45 42 41 43 46 49 51 55 62 68 70 68 63 59 55 51 49 49 48 45 44 40 36 32 31 31 32 33 33 34 35 34 34 33 32 32 33 34 35 35 34 32 32 32 32 32 32 32 32 32 33 34 35 35
49 46 44 42 42 41 40 40 40 41 43 44 45 47 48 48 48 48 48 47 47 47 46 45 44 44 44 43 41 40 40 41 40 39 40 42 42 42 45 51 55 55 53 51 51 49 47 45 43 42 42 42 39 35 33 33 34 35 36 36 37 36 36 36 35 34 34 35 36 36 35 33 32 33 33 32 32 32 33 33 35 36 36 37 38
49 47 45 43 41 39 38 37 38 39 41 41 42 43 44 45 45 45 44 44 43 41 40 40 43 44 43 43 43 43 42 42 41 40 40 41 42 42 43 46 47 46 46 48 49 48 47 44 40 38 38 37 36 36 36 37 38 39 39 39 39 38 38 38 37 36 36 37 38 37 35 34 33 34 33 33 32 33 34 35 37 38 40 40 41
49 47 46 43 41 40 38 38 37 38 38 38 39 39 39 40 40 40 40 39 37 38 41 42 44 47 50 52 52 51 48 45 44 45 45 45 46 47 49 49 48 48 48 48 48 47 44 41 38 37 37 37 38 39 40 41 42 42 42 41 40 40 40 40 40 38 37 37 38 37 36 35 35 35 35 34 35 35 37 38 39 40 42 42 43
49 48 49 47 45 43 42 40 39 39 38 38 38 37 38 39 38 39 39 39 40 44 47 47 47 51 56 59 59 57 53 48 46 45 46 46 47 51 54 54 54 54 54 54 54 53 49 45 42 41 41 42 43 43 44 45 45 45 45 44 43 43 43 42 42 40 38 37 37 38 37 36 36 36 37 37 38 40 42 43 43 42 43 44 44
51 50 51 51 50 47 44 42 40 39 39 40 40 40 39 39 39 40 40 43 49 56 57 55 55 57 56 56 56 56 54 52 51 50 51 52 54 58 61 61 60 60 59 59 59 57 53 49 46 45 45 45 46 47 48 48 48 48 48 46 46 45 45 44 42 42 40 39 38 39 39 38 38 38 40 41 43 44 46 47 46 45 45 45 45
54 54 53 53 54 52 49 45 43 43 42 41 42 42 42 41 42 43 45 48 55 60 59 55 55 54 51 52 54 54 55 57 60 61 62 62 62 64 65 65 64 63 61 57 55 53 51 49 48 48 48 48 48 49 50 50 51 51 50 49 48 48 47 46 45 44 43 43 42 41 41 41 42 42 44 46 48 49 50 50 49 48 46 45 44
56 55 54 54 55 54 52 49 48 47 47 46 45 44 44 44 45 47 48 50 53 56 56 54 53 52 52 54 56 56 55 56 59 62 64 65 66 66 66 65 64 61 56 52 50 50 50 50 50 49 49 49 49 50 50 50 51 51 52 51 51 50 50 49 48 47 47 47 47 46 45 45 47 49 49 50 52 54 54 53 51 50 48 46 45
58 56 55 55 55 56 55 52 50 49 49 49 48 47 47 46 46 46 46 47 48 51 55 56 56 56 57 57 58 59 59 59 60 61 63 64 65 64 63 61 59 55 52 50 50 51 50 51 51 51 51 51 52 52 52 52 52 52 53 53 53 52 51 51 51 50 50 50 50 50 50 50 52 56 58 56 55 56 57 57 54 51 49 47 47
60 58 56 56 56 57 57 55 52 51 50 50 50 50 49 48 46 45 44 44 45 48 54 58 60 60 59 58 59 60 61 61 61 62 62 62 62 61 60 57 54 52 51 52 52 52 52 52 52 53 54 54 54 54 55 55 55 55 54 53 53 52 52 51 51 51 52 52 52 53 55 55 57 62 65 63 59 57 58 59 56 54 52 51 52
63 60 58 56 57 58 58 57 54 52 51 50 50 49 49 48 47 46 44 44 45 47 50 55 59 61 61 61 61 61 61 60 59 59 59 58 57 56 55 54 52 52 54 55 55 55 55 55 55 56 56 57 56 56 56 56 55 55 54 53 53 53 53 53 53 53 53 54 54 55 58 62 63 65 67 66 62 58 57 57 57 58 58 59 58
67 65 62 60 59 59 60 59 57 55 54 52 50 48 47 48 48 48 47 47 48 49 50 51 54 57 60 60 60 60 60 59 59 58 57 56 54 53 54 54 55 56 58 59 58 58 58 57 57 57 56 56 55 55 54 54 53 53 52 52 53 54 54 54 54 54 55 56 57 59 63 67 69 70 69 67 64 61 58 58 59 61 64 66 65
72 69 67 65 64 64 63 62 60 58 56 55 53 51 50 51 51 52 52 52 51 51 51 52 53 56 58 59 59 58 57 57 57 57 56 57 57 57 58 58 59 61 61 60 60 59 58 57 56 55 54 53 53 52 52 51 51 51 51 51 51 52 53 53 54 55 57 59 61 63 65 66 68 69 70 69 68 67 64 64 65 69 71 71 69
74 72 69 67 67 67 66 65 64 62 59 57 57 56 57 57 57 57 56 55 54 53 53 54 56 57 58 58 58 57 57 58 59 59 60 61 63 63 63 62 63 63 62 61 60 58 57 55 55 54 54 53 52 51 52 51 51 51 51 51 51 51 52 54 55 57 58 60 61 62 64 66 68 70 69 68 69 69 69 70 73 76 76 75 72
73 71 69 67 68 68 68 68 67 66 64 63 62 62 62 62 62 62 60 58 58 57 56 57 58 58 59 60 61 60 61 61 62 62 63 64 65 65 64 64 63 62 61 60 59 57 56 55 55 54 54 53 52 52 51 51 51 51 50 50 51 51 51 52 52 53 53 54 54 55 58 62 66 68 68 68 69 70 70 73 77 80 79 77 75
68 68 68 67 67 68 70 71 71 71 71 70 70 70 69 68 67 65 63 61 60 59 58 58 58 59 60 62 63 62 61 61 62 61 61 61 61 62 62 61 61 61 60 59 58 56 55 55 54 53 53 52 51 50 50 48 47 47 47 46 46 46 46 46 46 46 46 46 47 49 51 54 57 59 60 62 64 65 66 70 76 80 80 78 78